Regional Weather Roundup
Issued by NWS

Home | Current Version | Previous Version | Graphics & Text | Print | Product List | Glossary On
Versions: 1 2 3 4 5 6 7 8 9 10 11 12 13 14 15 16 17 18 19 20 21 22 23 24 25 26 27 28 29 30 31 32 33 34 35 36 37 38 39 40 41 42 43 44 45 46 47 48 49 50
000
ASUS43 KOAX 232302
RWRNE

WEATHER ROUNDUP FOR NEBRASKA
NATIONAL WEATHER SERVICE OMAHA NE
600 PM CDT WED AUG 23 2017

NOTES: SATELLITE DATA IS BEING USED TO AUGMENT CLOUD COVER ABOVE
       12000 FEET.
       "FAIR" INDICATES FEW OR NO CLOUDS BELOW 12,000 FEET WITH NO
       SIGNIFICANT WEATHER AND/OR OBSTRUCTIONS TO VISIBILITY.


NEZ001>004-019>022-054>056-240000-
NEBRASKA PANHANDLE

CITY           SKY/WX    TMP DP  RH WIND       PRES   REMARKS
SCOTTSBLUFF    SUNNY     90  56  31 E10       29.99F
ALLIANCE       SUNNY     87  55  33 S10       29.99F
CHADRON        SUNNY     90  47  22 SE7       29.93F
GORDON         FAIR      90  49  24 CALM      29.96F
KIMBALL        CLOUDY    78  49  35 SW13G21   30.08S
SIDNEY         CLOUDY    88  55  32 S10       30.03F
$$

NEZ057>060-069>072-079>082-240000-
SOUTHWEST NEBRASKA

CITY           SKY/WX    TMP DP  RH WIND       PRES   REMARKS
NORTH PLATTE   SUNNY     83  59  44 S16       29.99F
IMPERIAL       SUNNY     87  58  37 S13       30.00F
LEXINGTON      SUNNY     81  51  35 S12       30.03F
MCCOOK         SUNNY     85  54  34 S16       30.01F
OGALLALA       SUNNY     87  60  40 S12G17    29.99F
$$

NEZ005>010-023>029-035>040-094-240000-
NORTH CENTRAL NEBRASKA

CITY           SKY/WX    TMP DP  RH WIND       PRES   REMARKS
VALENTINE      SUNNY     91  57  31 SW16      29.93F
AINSWORTH      SUNNY     83  61  46 S14       29.97S
BROKEN BOW     SUNNY     82  53  36 S18       30.01F
O`NEILL        SUNNY     80  59  48 S14G20    29.99S
ORD            SUNNY     79  52  38 S16       30.00F
THEDFORD       SUNNY     85  59  41 S16G25    29.99F
$$

NEZ041-046>049-061>064-073>077-083>087-240000-
SOUTH CENTRAL NEBRASKA

CITY           SKY/WX    TMP DP  RH WIND       PRES   REMARKS
GRAND ISLAND   SUNNY     79  57  46 S10       30.04F
AURORA         SUNNY     78  57  48 S10       30.05F
HASTINGS       SUNNY     80  52  37 S12       30.05F
HEBRON         SUNNY     82  53  36 S7        30.05F
HOLDREGE       SUNNY     80  50  34 S10       30.04F
KEARNEY        SUNNY     80  56  43 S12       30.04F
$$

NEZ011>018-030>034-042>045-240000-
NORTHEAST NEBRASKA

CITY           SKY/WX    TMP DP  RH WIND       PRES   REMARKS
NORFOLK        SUNNY     77  60  55 S15       30.01F
ALBION         SUNNY     78  60  53 S12       30.02F
BLAIR          SUNNY     77  59  53 S7        30.05F
COLUMBUS       SUNNY     77  60  55 S12       30.04F
FREMONT        SUNNY     77  57  50 S8        30.05F
TEKAMAH        SUNNY     78  58  49 S8        30.03F
WAYNE          SUNNY     75  59  56 S15       30.02F
$$

NEZ050>053-065>068-078-088>093-240000-
SOUTHEAST NEBRASKA

CITY           SKY/WX    TMP DP  RH WIND       PRES   REMARKS
LINCOLN        SUNNY     79  57  46 S9        30.06F
OMAHA EPPLEY   SUNNY     79  55  43 S13       30.05F
BEATRICE       SUNNY     81  55  41 SE6       30.05F
FALLS CITY     SUNNY     78  56  46 E6        30.06F
NEBRASKA CITY  SUNNY     77  56  49 SE5       30.07F
PLATTSMOUTH    SUNNY     77  55  47 S5        30.07S
$$

NEZ044-045-051>053-067-240000-
OMAHA AREA

CITY           SKY/WX    TMP DP  RH WIND       PRES   REMARKS
OMAHA EPPLEY   SUNNY     79  55  43 S13       30.05F
BLAIR          SUNNY     77  59  53 S7        30.05F
FREMONT        SUNNY     77  57  50 S8        30.05F
MILLARD        SUNNY     80  59  49 SE7       30.05F
OFFUTT AFB     SUNNY     78  56  46 S9        30.05F
PLATTSMOUTH    SUNNY     77  55  47 S5        30.07S
WAHOO          FAIR      78  59  52 S9        30.05F
$$



USA.gov is the U.S. government's official web portal to all federal, state and local government web resources and services.